Weather in Livenka

Russia / Belgorod Oblast     50°26′50″N   38°17′46″E
temp.,
°C
wind,
m/s
gust,
m/s
humid.,
%
clouds,
%
prec.,
mm/h
press.,
hPa
HPBL,
m
6 march, sat
sat600:00−1n2282100 0.0 101651
03:00−2n248895 0.0 1017204
06:00−2n2485100 0.0 1016342
09:00−1nnw3476100 0.0 1017485
12:000nnw5661100 0.0 1017949
15:000nw5755100 0.1 10161413
18:00−3nw797065 0.1 1018906
21:00−4nnw7106680 0.1 10191028
7 march, sun
sun700:00−4nw58600 0.0 1020988
03:00−4wnw47630 0.0 1021839
06:00−5wsw48610 0.0 1020690
09:00−3wsw711633 0.0 1019973
12:00−1wsw91343100 0.0 10161172
15:00+1wsw111642100 0.0 10121451
18:000wsw91664100 0.0 10091311
21:00−1wsw101689100 0.1 10081051
8 march, mon
mon800:00−1wsw91590100 0.4 10071047
03:00−1wsw8148597 0.5 1007941
06:00−1wsw91392100 0.3 10051011
09:00−1wsw101484100 0.5 10061225
12:00−1wnw9125898 0.2 10071455
15:00−2wnw8123791 0.3 10091563
18:00−4nw710460 0.0 10111369
21:00−5nw57570 0.0 1014868
9 march, tue
tue900:00−6wnw36620 0.0 1015618
03:00−6w35660 0.0 1015383
06:00−7w367122 0.0 1015308
09:00−5w366652 0.0 1016736
12:00−3wnw566194 0.1 10161102
15:00−4nw675697 0.2 10171249
18:00−6nnw6860100 0.0 10191067
21:00−8nnw576788 0.0 1022728
10 march, wed
wed1000:00−9nw36679 0.0 1024601
03:00−9wnw24705 0.0 1024416
06:00−9wsw35751 0.0 1024265
09:00−7wsw57647 0.0 1024427
12:00−3w574557 0.0 1023757
15:00−2w574073 0.0 1021914
18:00−2w464597 0.0 1021689
21:00−4w365394 0.0 1021254